Weather Roundup
Issued by NWS Chicago, IL

Home | Current Version | Previous Version | Text Only | Print | Product List | Glossary On
Versions: 1 2 3 4 5 6 7 8 9 10 11 12 13 14 15 16 17 18 19 20 21 22 23 24 25 26 27 28 29 30 31 32 33 34 35 36 37 38 39 40 41 42 43 44 45 46 47 48 49 50
000
NZUS59 KLOT 160210
HRRLOT

CHICAGO AREA WEATHER ROUNDUP
NATIONAL WEATHER SERVICE CHICAGO/ROMEOVILLE IL
900 PM CDT MON SEP 15 2014

NOTE: "FAIR" INDICATES FEW OR NO CLOUDS BELOW 12,000 FEET WITH NO
SIGNIFICANT WEATHER AND/OR OBSTRUCTIONS TO VISIBILITY.

* THESE STATIONS ARE NOT UNDER NWS QUALITY CONTROL. THEY ALSO MAY NOT
  REPORT WEATHER SUCH AS PRECIPITATION OR FOG.

ILZ005-006-012>014-019>023-160300-
NORTHEAST ILLINOIS

CITY           SKY/WX    TMP DP  RH WIND       PRES   REMARKS
OHARE          PTCLDY    55  50  83 N8        30.15R
MIDWAY         CLOUDY    58  52  80 N13       30.14R
AURORA         CLOUDY    55  51  86 N8        30.16R
LANSING*       CLOUDY    55  54  97 CALM      30.13R FOG
JOLIET*        CLOUDY    55  53  95 CALM      30.16R FOG
WAUKEGAN       CLEAR     50  47  89 NW3       30.15R
DUPAGE AIRPORT CLOUDY    55  51  86 N7        30.15R
WHEELING       CLEAR     53  48  83 N6        30.17R
KANKAKEE*      CLOUDY    54  53  98 CALM      30.14R FOG
MORRIS*        CLOUDY    55  55 100 N3        30.15R FOG
LEWIS AIRPORT* CLOUDY    55  55  99 N8        30.14R
NORTHERLY IS     N/A     58  52  80 MISG        N/A
$$

WIZ051-052-058>065-066-070>072-160300-
SOUTHEAST WISCONSIN

CITY           SKY/WX    TMP DP  RH WIND       PRES   REMARKS
MILWAUKEE      CLEAR     50  48  93 W3        30.16R
KENOSHA*       CLEAR     48  47  96 W3        30.16R FOG
RACINE*        CLEAR     49  47  93 W6        30.17R
BURLINGTON     CLEAR     43  43  99 SW5       30.16R
WAUKESHA       CLEAR     45  45 100 W3        30.17R
WEST BEND        N/A     45  43  93 CALM      30.16R FOG
$$

INZ001>003-010>013-019-020-160300-
NORTHWEST INDIANA

CITY           SKY/WX    TMP DP  RH WIND       PRES   REMARKS
GARY*          CLOUDY    57  55  94 CALM      30.13R FOG
MICHIGAN CITY* NOT AVBL
RENSSELAER*    NOT AVBL
VALPARAISO     CLOUDY    54  53  97 CALM      30.13R FOG
$$

LMZ740>746-160300-
SOUTHERN LAKE MICHIGAN

STATION/POSITION TIME  SKY/WX   TEMP WIND        PRES    VSBY
                                AIR  DIR/SP/G
                 (UTC)          (F)  (DEG/KT/KT) (MB)    (MI)
HARRISON CRIB    0200            58   10/ 16/ 18   N/A
BURNHAM HARBOR   0200            58  360/  8/ 12   N/A
CALUMET HARBOR   0200            58  340/  8/ 12 1019.1R
BURNS HARBOR     NOT AVBL
MICHIGAN CITY    0200            60  350/ 16/ 18   N/A
$$

ABBREVIATIONS USED IN REMARKS
   TC - TEMPERATURE IN CELSIUS
  WCI - WIND CHILL INDEX
   HX - HEAT INDEX
  VSB - VISIBILITY
$$


USA.gov is the U.S. government's official web portal to all federal, state and local government web resources and services.